User: anonymous   Login
Location: Key Biscayne
(25.6930°N, 80.1630°W)
Time: 07:15:03
(UTC-05:00)
Language:

CZ-2D R/B - Orbit

View from above orbital plane
View from above orbital plane
View from above satellite
View from above satellite

Ground track
Ground track

The orbit data is extracted from the following two-line orbital elements,

1 28738U 05024B   17325.12442752  .00000573  00000-0  37690-4 0  9998
2 28738  97.4799 358.7905 0012182 177.0260 183.1045 15.11357874679511
Epoch (UTC): 21 November 2017 02:59:10
Eccentricity: 0.0012182
inclination: 97.4799°
perigee height: 523 km
apogee height: 540 km
right ascension of ascending node: 358.7905°
argument of perigee: 177.0260°
revolutions per day: 15.11357874
mean anomaly at epoch: 183.1045°
orbit number at epoch: 67951

The dashed part of the orbit path shows where the satellite is in the earth's shadow,  

DLR